Wind_Speed
8 8 8 10 12 14 12 11 11 11 12 13 13 14 14 14 15 15 16 19 18 17 17 18 18 17 17 18 18 19 20 20 19 18 19 19 21 23 22 23 22 24 23
17 12 14 13 12 12 14 14 17 19 20 20 20 18 17 18 19 20 20 20 20 20 18 19 19 19 20 20 21 22 23 24 24 24 22 21 22 24 26 28 27 27 29
19 17 20 21 20 19 19 19 20 20 21 23 23 22 20 18 20 23 24 25 24 26 25 24 24 23 23 24 24 25 26 27 27 28 27 25 24 24 26 28 29 31 29
24 25 24 25 27 29 31 30 32 31 31 27 27 27 25 25 24 23 23 27 26 29 29 27 26 27 27 29 29 29 30 31 29 28 29 31 30 28 28 28 30 30 33
30 33 32 34 35 38 38 40 36 37 38 37 32 32 35 32 30 28 26 26 27 28 30 31 31 32 32 33 34 32 32 32 31 30 30 31 33 34 32 31 33 33 34
35 38 38 39 39 41 44 45 44 36 41 42 40 40 38 41 37 35 34 32 29 29 29 31 31 30 31 32 32 33 32 31 32 34 34 32 31 32 32 32 33 32 31
40 41 40 40 43 44 47 47 54 47 48 54 47 49 46 44 43 42 41 38 36 33 33 34 34 33 35 33 33 35 37 37 37 34 30 29 31 32 33 33 30 29 30
42 41 42 44 46 45 47 42 45 32 30 30 36 42 47 51 48 49 49 46 42 41 38 37 37 37 37 37 36 36 34 32 33 29 28 28 28 29 30 31 31 30 30
42 43 43 44 41 41 42 40 34 34 30 32 34 37 39 48 52 48 51 53 49 48 45 42 41 38 37 37 35 34 31 28 28 28 29 28 28 29 30 30 29 30 32
42 45 39 39 41 40 41 37 37 37 39 40 43 42 42 48 48 51 56 58 57 51 50 48 44 40 36 35 34 34 30 28 27 29 30 30 29 30 29 29 28 30 32
40 37 34 34 38 39 34 40 42 40 40 43 43 44 44 47 50 47 48 57 58 57 53 52 49 43 40 37 35 34 32 30 30 31 31 33 33 34 32 32 32 32 34
36 35 34 35 34 34 33 34 33 33 34 36 34 37 40 39 43 45 45 41 40 47 54 55 49 42 43 38 37 34 32 32 31 32 33 34 34 35 34 34 35 35 35
36 36 34 33 32 31 28 25 24 25 27 21 20 25 23 31 37 47 44 47 46 45 57 46 46 46 32 31 31 27 27 29 32 33 33 34 35 36 36 37 37 37 38
35 35 35 38 35 31 18 19 18 20 19 20 17 22 23 20 26 43 47 40 38 46 52 44 50 38 24 22 24 25 27 32 34 34 35 36 35 35 37 38 38 38 39
35 36 36 33 26 22 21 21 19 22 25 24 16 14 20 25 26 28 25 29 37 40 43 32 26 26 29 28 30 31 31 34 35 35 37 37 38 38 39 40 39 39 40
36 35 30 25 24 26 26 27 25 19 17 22 24 22 23 19 17 17 23 23 22 22 23 25 27 27 26 26 27 30 33 36 38 39 40 40 41 43 45 44 44 44 44
33 30 26 25 25 24 24 25 24 24 22 23 25 22 18 21 20 21 20 20 19 25 29 32 30 30 31 34 36 37 37 39 40 41 42 43 44 45 47 47 48 48 46
31 28 25 24 23 25 27 28 27 27 27 25 24 24 23 24 23 27 25 29 29 29 33 34 35 37 38 39 40 42 44 45 46 47 47 47 47 46 47 48 50 51 51
29 29 26 24 24 26 26 26 26 26 26 28 29 29 28 28 29 29 31 32 33 34 36 38 40 42 43 45 46 47 47 47 48 48 48 49 50 50 51 52 52 52 53
23 24 27 24 24 24 26 25 26 27 28 29 31 32 32 34 33 33 34 36 38 40 41 42 42 43 43 43 43 43 44 43 42 42 43 45 46 47 49 50 51 51 52
21 20 23 25 27 28 29 30 32 32 33 34 35 37 37 37 38 38 38 37 36 36 36 36 37 37 37 36 34 35 37 40 43 45 47 48 49 49 50 50 49 49 48
24 25 27 29 31 32 33 35 36 38 40 41 41 40 42 42 42 41 40 40 39 39 39 38 36 33 33 36 39 42 45 47 49 49 48 47 48 48 48 48 48 47 48
29 31 32 33 35 36 37 38 39 39 38 38 38 38 37 36 36 36 37 37 37 37 36 35 34 37 40 43 45 45 45 46 46 47 47 47 47 45 44 44 45 45 45
33 35 37 38 39 39 39 37 35 34 33 32 32 33 33 33 32 31 30 30 31 32 34 37 40 41 42 42 42 42 45 48 48 47 46 45 45 46 46 46 46 46 45
38 39 39 38 37 34 33 33 33 33 33 33 33 32 31 30 30 31 32 33 35 37 38 39 40 42 42 42 43 47 48 47 44 42 41 42 44 46 47 48 49 48 47
38 36 34 33 32 32 32 32 32 32 32 32 32 32 33 34 36 38 39 40 40 39 38 39 40 41 41 41 43 44 43 42 41 42 44 47 49 51 51 50 48 47 46
Wind_Direction
345 345 341 330 329 321 314 298 293 288 283 281 278 275 278 279 276 271 268 266 264 265 268 270 271 270 267 266 266 269 271 272 272 272 279 281 289 290 284 280 282 282 282
20 359 354 357 343 313 304 308 308 306 304 301 289 283 280 278 278 274 269 270 270 267 266 265 264 263 265 268 269 271 274 277 278 276 276 279 283 286 286 283 283 280 278
354 350 341 335 331 325 321 309 310 294 288 285 284 287 284 279 275 274 272 269 268 268 266 266 268 268 269 269 270 273 275 277 278 279 278 276 278 281 281 279 274 275 279
335 335 331 318 315 313 314 310 306 301 297 291 282 275 276 276 279 278 274 270 266 267 268 266 265 266 266 268 269 269 275 277 281 283 280 277 276 279 279 278 282 285 288
324 322 320 317 313 311 308 308 299 292 290 287 276 274 270 267 269 272 275 277 271 267 266 266 265 267 266 267 269 271 270 275 278 280 281 280 277 277 278 282 287 291 290
315 312 310 306 301 301 300 294 286 282 275 272 270 265 263 264 263 262 265 269 272 271 266 267 268 268 268 266 267 269 271 274 278 278 275 273 273 274 275 282 284 282 283
302 302 300 295 296 292 283 276 283 269 279 264 264 265 263 259 259 261 259 261 264 264 266 267 269 270 270 270 271 274 275 277 278 278 277 277 272 278 282 279 279 279 280
295 297 298 296 295 293 295 300 293 291 280 275 266 274 258 261 258 258 257 255 255 259 261 265 271 273 274 277 277 276 280 276 278 268 273 278 280 279 280 281 280 279 279
299 300 297 294 292 291 294 296 300 299 287 273 270 269 267 258 252 263 265 252 249 254 256 257 262 269 274 281 285 282 275 270 272 272 272 274 277 280 281 279 278 278 278
300 303 302 294 291 292 295 295 296 290 282 275 274 273 272 263 257 257 258 253 249 246 253 258 261 267 275 276 278 278 275 271 272 274 275 275 277 276 274 275 275 277 279
303 305 305 300 300 299 296 301 299 293 287 288 280 268 266 265 257 260 257 254 245 247 245 251 255 263 270 274 274 274 273 274 277 277 275 275 276 276 276 277 276 275 274
312 311 313 310 309 307 305 299 290 297 295 296 277 264 265 265 258 263 261 258 270 260 247 248 251 262 265 269 272 270 273 277 278 277 277 277 278 278 279 279 280 280 277
311 309 307 314 319 312 304 304 311 312 307 304 267 268 264 258 250 259 269 274 271 259 240 254 246 251 252 261 266 270 274 278 278 279 280 280 280 281 281 280 280 279 278
309 309 309 313 319 309 293 300 305 326 337 316 293 295 246 237 259 259 260 264 270 264 241 257 252 246 246 251 265 277 284 286 285 284 282 280 278 279 281 280 279 278 278
312 314 309 311 311 310 300 299 309 314 324 315 319 330 313 281 276 273 284 273 268 267 259 260 260 267 266 263 264 267 270 278 283 284 284 284 285 284 283 284 284 281 278
313 317 310 307 301 305 304 304 302 314 330 328 331 327 325 315 302 297 295 298 298 303 287 290 293 295 295 293 291 286 283 282 283 284 283 282 282 281 280 280 279 278 277
312 314 310 304 300 306 311 318 315 316 315 313 315 310 302 302 302 301 312 311 315 305 305 303 298 297 295 292 290 288 287 286 285 284 283 282 280 280 280 279 279 277 275
315 314 314 313 309 309 312 314 311 308 314 314 314 313 311 313 311 302 295 288 295 288 287 291 292 293 293 293 293 292 292 291 290 289 289 288 286 283 280 279 278 276 274
312 307 302 299 302 306 305 307 308 309 311 311 310 309 307 304 302 299 296 296 295 295 294 294 293 293 293 293 293 292 292 291 290 290 290 289 288 286 285 282 278 277 275
314 317 318 318 322 318 316 314 311 313 314 311 309 307 306 305 303 298 294 292 291 291 291 291 291 291 290 289 289 289 290 290 290 289 289 289 288 286 285 284 283 280 277
322 325 320 318 321 320 318 317 316 315 312 309 307 306 305 303 301 299 298 296 294 293 292 292 291 291 292 292 293 294 295 297 297 296 295 293 292 291 289 287 285 283 280
321 321 320 319 318 317 314 312 311 309 308 307 305 305 305 305 305 306 306 306 305 304 303 303 304 303 302 301 300 299 297 296 295 294 293 292 290 290 290 288 285 283 281
317 318 317 317 315 313 311 310 308 305 303 302 302 303 304 304 304 304 304 304 303 301 299 297 297 298 299 299 298 298 298 297 295 293 291 291 290 291 292 291 289 285 283
317 317 315 314 312 311 311 311 311 311 312 313 312 312 312 311 309 307 306 307 306 302 298 297 297 297 299 301 300 300 302 300 296 293 291 290 288 289 290 292 292 288 283
314 312 311 311 313 315 316 316 316 316 316 316 315 313 312 311 309 308 306 305 304 303 303 303 305 305 305 302 300 303 305 303 299 296 294 292 291 289 288 290 289 287 285
312 312 313 315 315 316 316 315 315 315 314 314 314 314 311 309 307 306 305 305 305 305 305 306 306 305 305 305 308 307 305 304 301 298 296 295 294 292 291 290 287 285 282
Height
5912 5911 5910 5909 5908 5907 5906 5904 5903 5902 5900 5899 5898 5897 5896 5896 5896 5895 5895 5894 5894 5893 5893 5893 5893 5894 5894 5894 5894 5894 5892 5891 5891 5891 5890 5890 5890 5889 5889 5887 5886 5885 5886
5913 5912 5910 5908 5905 5904 5904 5903 5902 5901 5900 5899 5897 5895 5893 5892 5892 5891 5889 5889 5890 5889 5889 5888 5888 5888 5887 5888 5888 5888 5887 5886 5885 5885 5884 5885 5883 5882 5882 5880 5880 5879 5877
5911 5909 5907 5905 5902 5901 5899 5897 5896 5895 5894 5892 5892 5892 5890 5888 5886 5885 5884 5883 5883 5884 5883 5883 5883 5883 5882 5881 5880 5878 5879 5878 5878 5878 5878 5877 5877 5876 5875 5874 5872 5870 5872
5907 5905 5903 5900 5898 5895 5893 5891 5889 5887 5886 5885 5885 5884 5882 5882 5880 5878 5877 5876 5876 5876 5877 5876 5876 5875 5874 5873 5871 5871 5870 5869 5868 5869 5870 5870 5868 5867 5866 5866 5864 5864 5863
5901 5898 5895 5893 5891 5887 5885 5883 5881 5879 5877 5875 5873 5874 5874 5873 5874 5873 5870 5869 5868 5867 5868 5869 5868 5867 5867 5866 5864 5863 5860 5860 5861 5860 5859 5859 5860 5859 5858 5858 5858 5858 5857
5894 5891 5887 5886 5881 5878 5876 5872 5869 5867 5865 5864 5863 5860 5861 5862 5864 5864 5863 5862 5862 5861 5860 5860 5860 5859 5858 5857 5857 5856 5856 5854 5854 5852 5850 5848 5848 5848 5848 5848 5848 5846 5846
5886 5883 5880 5875 5871 5868 5863 5858 5850 5850 5852 5849 5849 5849 5848 5847 5851 5851 5853 5854 5853 5851 5852 5852 5851 5851 5850 5850 5849 5848 5847 5846 5844 5843 5842 5840 5839 5840 5841 5839 5838 5836 5836
5877 5874 5870 5864 5858 5854 5848 5846 5839 5836 5836 5836 5836 5835 5834 5835 5837 5837 5839 5841 5841 5841 5841 5842 5842 5842 5841 5839 5839 5838 5837 5836 5834 5833 5833 5832 5831 5830 5830 5830 5829 5828 5827
5867 5863 5858 5853 5849 5845 5841 5837 5834 5829 5828 5826 5825 5824 5822 5820 5823 5823 5823 5826 5828 5830 5830 5830 5831 5831 5830 5831 5829 5828 5826 5824 5825 5825 5825 5823 5821 5820 5820 5820 5820 5819 5818
5856 5852 5847 5842 5840 5836 5833 5828 5824 5819 5816 5813 5812 5810 5809 5807 5808 5808 5808 5812 5815 5815 5819 5821 5821 5821 5821 5821 5820 5819 5816 5815 5813 5814 5815 5814 5811 5810 5810 5809 5809 5808 5808
5848 5843 5838 5835 5831 5826 5821 5817 5812 5807 5804 5799 5796 5795 5794 5793 5794 5795 5793 5795 5798 5802 5803 5806 5808 5808 5810 5811 5810 5809 5806 5805 5803 5802 5802 5802 5800 5799 5798 5798 5798 5797 5796
5840 5835 5831 5826 5821 5817 5813 5808 5801 5796 5792 5784 5781 5781 5780 5780 5781 5782 5783 5785 5787 5788 5790 5789 5793 5794 5797 5797 5798 5795 5794 5794 5793 5792 5791 5790 5789 5788 5786 5785 5786 5785 5784
5833 5828 5823 5818 5813 5808 5802 5797 5794 5787 5782 5777 5772 5769 5768 5769 5770 5774 5775 5773 5774 5773 5776 5777 5780 5780 5780 5782 5784 5782 5781 5782 5781 5781 5780 5779 5778 5777 5775 5774 5773 5771 5771
5826 5820 5814 5809 5804 5800 5796 5793 5789 5784 5778 5773 5769 5766 5764 5765 5765 5764 5766 5766 5766 5767 5766 5767 5768 5767 5769 5767 5770 5770 5769 5770 5770 5768 5767 5767 5765 5763 5762 5762 5760 5759 5758
5818 5812 5807 5803 5798 5794 5791 5788 5783 5780 5775 5773 5770 5768 5765 5762 5760 5760 5759 5758 5757 5757 5758 5758 5758 5759 5759 5755 5755 5756 5758 5758 5758 5756 5755 5753 5752 5751 5750 5749 5748 5747 5746
5810 5805 5800 5796 5791 5788 5785 5781 5778 5776 5772 5770 5767 5765 5763 5761 5758 5757 5756 5753 5752 5751 5750 5748 5748 5747 5747 5746 5746 5747 5748 5748 5746 5744 5742 5741 5739 5738 5736 5734 5733 5732 5732
5803 5799 5794 5790 5786 5782 5780 5777 5773 5770 5768 5766 5763 5761 5758 5757 5754 5752 5750 5748 5746 5745 5742 5741 5740 5738 5737 5737 5737 5736 5735 5733 5732 5729 5728 5726 5725 5723 5721 5720 5718 5718 5717
5796 5792 5789 5785 5781 5778 5774 5770 5768 5765 5762 5759 5757 5754 5751 5749 5746 5746 5744 5741 5740 5737 5735 5733 5731 5729 5727 5725 5724 5722 5720 5717 5715 5712 5710 5708 5706 5704 5703 5701 5699 5699 5698
5789 5786 5783 5780 5776 5772 5769 5765 5761 5757 5754 5751 5748 5746 5744 5742 5740 5737 5735 5732 5729 5727 5725 5722 5720 5717 5715 5713 5710 5707 5704 5701 5698 5695 5692 5689 5687 5684 5682 5681 5680 5678 5677
5783 5780 5778 5775 5770 5765 5762 5759 5755 5751 5748 5745 5742 5738 5735 5732 5729 5727 5725 5723 5719 5716 5713 5710 5707 5705 5702 5699 5696 5693 5689 5685 5682 5679 5676 5672 5670 5667 5665 5661 5659 5657 5656
5780 5776 5772 5769 5765 5761 5756 5752 5748 5744 5740 5737 5734 5729 5726 5723 5720 5716 5713 5710 5707 5704 5701 5698 5694 5690 5687 5683 5679 5676 5672 5669 5666 5663 5660 5656 5652 5649 5645 5643 5640 5637 5635
5774 5770 5766 5762 5758 5754 5750 5746 5741 5736 5732 5727 5723 5719 5714 5710 5706 5702 5698 5694 5690 5687 5684 5680 5676 5673 5671 5668 5665 5662 5659 5655 5651 5647 5642 5639 5636 5632 5628 5625 5621 5619 5616
5768 5763 5759 5755 5750 5746 5741 5736 5732 5727 5723 5719 5714 5710 5706 5702 5698 5694 5690 5685 5681 5677 5674 5671 5668 5664 5661 5657 5653 5648 5643 5638 5634 5630 5627 5623 5619 5616 5612 5608 5605 5602 5600
5760 5755 5751 5746 5741 5736 5731 5727 5722 5718 5713 5709 5705 5701 5696 5692 5688 5684 5681 5677 5673 5669 5665 5662 5658 5654 5649 5644 5638 5634 5630 5625 5620 5614 5610 5606 5603 5599 5595 5592 5589 5585 5583
5752 5747 5742 5736 5731 5726 5722 5717 5713 5708 5704 5700 5696 5692 5688 5684 5680 5676 5672 5668 5664 5660 5655 5650 5645 5640 5635 5630 5626 5621 5615 5609 5603 5598 5594 5591 5588 5584 5580 5576 5572 5568 5565
5743 5737 5732 5728 5723 5719 5714 5710 5706 5701 5697 5692 5688 5684 5680 5675 5671 5667 5662 5658 5653 5648 5643 5638 5634 5629 5624 5618 5613 5607 5601 5595 5590 5585 5581 5577 5572 5567 5562 5558 5554 5550 5548